Weather History for Tanana, AK

Change the Weather History Date:

Sunday, March 10, 2013

  Actual Average Record
Temperature  
Mean Temperature 8 °F -  
Max Temperature 23 °F 19 °F 42 °F (1965)
Min Temperature -7 °F -4 °F -41 °F (1959)
Degree Days  
Heating Degree Days 57    
Moisture  
Dew Point 1 °F    
Average Humidity 76    
Maximum Humidity 87    
Minimum Humidity 53    
Precipitation  
Precipitation 0.00 in - - ()
Snow  
Snow 0.00 in - - ()
Snow Depth 13.00 in    
Sea Level Pressure  
Sea Level Pressure 30.21 in    
Wind  
Wind Speed 2 mph (WNW)    
Max Wind Speed 6 mph    
Max Gust Speed -    
Visibility 10 miles    
Events      
Averages and records for this station are not official NWS values.
T = Trace of Precipitation, MM = Missing Value Source: NWS Daily Summary

Daily Weather History Graph

Daily Weather History Graph

Search for Another Location

Airport:

Trip Planner

Search our weather history database for the weather conditions in past years. The results will help you decide how hot, cold, wet, or windy it might be!

Date:

Astronomy

Mar. 10, 2013 Rise Set
Actual Time 8:44 AM AKDT 7:54 PM AKDT
Civil Twilight 7:54 AM AKDT 8:44 PM AKDT
Nautical Twilight 6:56 AM AKDT 9:42 PM AKDT
Astronomical Twilight 5:53 AM AKDT 10:46 PM AKDT
Moon 8:00 AM AKDT (3/10) 7:13 PM AKDT (3/10)
Length of Visible Light 12h 49m
Length of Day
11h 10m
Waning Crescent, 1% of the Moon is Illuminated
Mar 10
Waning Crescent
Mar 11
New
Mar 19
First Quarter
Mar 27
Full
Apr 2
Last Quarter

Hourly Weather History & Observations

Time (AKDT) Temp. Windchill Dew Point Humidity Pressure Visibility Wind Dir Wind Speed Gust Speed Precip Events Conditions
12:52 AM 16.0 °F - 10.0 °F 77% 30.09 in 10.0 mi Calm Calm - N/A   Overcast
1:52 AM 14.0 °F - 9.0 °F 80% 30.09 in 10.0 mi Calm Calm - N/A   Overcast
3:47 AM 6.8 °F - 1.4 °F 79% 30.08 in 10.0 mi Calm Calm - N/A   Partly Cloudy
3:52 AM 7.0 °F - 3.0 °F 84% 30.10 in 10.0 mi Calm Calm - N/A   Partly Cloudy
4:52 AM -0.0 °F -7.9 °F -5.1 °F 79% 30.11 in 10.0 mi NE 3.5 mph - N/A   Clear
5:52 AM -2.0 °F - -5.1 °F 87% 30.11 in 10.0 mi Calm Calm - N/A   Clear
6:52 AM -7.1 °F -15.9 °F -11.0 °F 83% 30.13 in 10.0 mi NNE 3.5 mph - N/A   Clear
7:52 AM -7.1 °F -15.9 °F -11.0 °F 83% 30.13 in 10.0 mi NE 3.5 mph - N/A   Partly Cloudy
8:52 AM -7.1 °F - -11.9 °F 79% 30.14 in 10.0 mi Calm Calm - N/A   Partly Cloudy
9:52 AM -6.0 °F - -9.9 °F 83% 30.15 in 10.0 mi Calm Calm - N/A   Partly Cloudy
10:52 AM -4.0 °F -14.6 °F -7.1 °F 87% 30.16 in 10.0 mi WNW 4.6 mph - N/A   Partly Cloudy
11:52 AM 3.0 °F - -0.9 °F 84% 30.17 in 10.0 mi Calm Calm - N/A   Partly Cloudy
12:52 PM 8.1 °F - 3.0 °F 80% 30.19 in 10.0 mi Calm Calm - N/A   Partly Cloudy
1:52 PM 14.0 °F - 7.0 °F 74% 30.20 in 10.0 mi Calm Calm - N/A   Partly Cloudy
2:52 PM 19.0 °F 13.9 °F 10.0 °F 68% 30.21 in 10.0 mi West 3.5 mph - N/A   Partly Cloudy
3:52 PM 21.9 °F 14.5 °F 10.0 °F 60% 30.22 in 10.0 mi WSW 5.8 mph - N/A   Clear
4:52 PM 21.9 °F 15.7 °F 10.0 °F 60% 30.24 in 10.0 mi West 4.6 mph - N/A   Clear
5:52 PM 23.0 °F 15.8 °F 8.1 °F 53% 30.25 in 10.0 mi West 5.8 mph - N/A   Partly Cloudy
6:52 PM 21.9 °F 14.5 °F 9.0 °F 58% 30.26 in 10.0 mi West 5.8 mph - N/A   Clear
7:52 PM 19.9 °F 13.4 °F 8.1 °F 60% 30.28 in 10.0 mi West 4.6 mph - N/A   Scattered Clouds
8:52 PM 10.9 °F - 3.9 °F 73% 30.31 in 10.0 mi Calm Calm - N/A   Scattered Clouds
9:52 PM 7.0 °F -1.7 °F 1.9 °F 80% 30.34 in 10.0 mi West 4.6 mph - N/A   Clear
10:52 PM -0.0 °F -7.9 °F -4.0 °F 83% 30.37 in 10.0 mi WSW 3.5 mph - N/A   Clear
11:52 PM -0.9 °F -12.7 °F -5.1 °F 83% 30.39 in 10.0 mi West 5.8 mph - N/A   Clear
12:52 AM -0.9 °F -12.7 °F -5.1 °F 83% 30.41 in 10.0 mi West 5.8 mph - N/A   Clear